Time,TemperatureF,DewpointF,PressureIn,WindDirection,WindDirectionDegrees,WindSpeedMPH,WindSpeedGustMPH,Humidity,HourlyPrecipIn,Conditions,Clouds,dailyrainin,SoftwareType,DateUTC
2013-10-27 00:05:00,39.6,28.0,29.94,South,180,5.4,7.8,63,0.00,,,0.00,WUHU216HW,2013-10-27 06:05:00,
2013-10-27 00:15:00,39.4,27.8,29.93,SE,135,1.8,6.3,63,0.00,,,0.00,WUHU216HW,2013-10-27 06:15:00,
2013-10-27 00:25:00,39.2,27.6,29.93,SE,135,2.2,4.9,63,0.00,,,0.00,WUHU216HW,2013-10-27 06:25:00,
2013-10-27 00:35:00,39.1,27.5,29.93,ESE,113,1.8,5.1,63,0.00,,,0.00,WUHU216HW,2013-10-27 06:35:00,
2013-10-27 00:45:00,38.9,27.6,29.92,SSE,158,2.2,2.7,64,0.00,,,0.00,WUHU216HW,2013-10-27 06:45:00,
2013-10-27 00:55:00,38.7,27.5,29.92,SSE,158,4.5,4.5,64,0.00,,,0.00,WUHU216HW,2013-10-27 06:55:00,
2013-10-27 01:05:00,38.3,27.5,29.92,SSW,203,3.4,6.0,65,0.00,,,0.00,WUHU216HW,2013-10-27 07:05:00,
2013-10-27 01:15:00,38.0,27.2,29.91,SSE,158,2.9,4.7,65,0.00,,,0.00,WUHU216HW,2013-10-27 07:15:00,
2013-10-27 01:25:00,37.6,27.3,29.90,SSE,158,3.8,5.4,66,0.00,,,0.00,WUHU216HW,2013-10-27 07:25:00,
2013-10-27 01:35:00,37.3,27.3,29.90,SSE,158,3.1,6.3,67,0.00,,,0.00,WUHU216HW,2013-10-27 07:35:00,
2013-10-27 01:45:00,37.1,27.2,29.89,SSE,158,2.7,4.3,67,0.00,,,0.00,WUHU216HW,2013-10-27 07:45:00,
2013-10-27 01:55:00,36.7,26.8,29.89,SE,135,1.8,5.4,67,0.00,,,0.00,WUHU216HW,2013-10-27 07:55:00,
2013-10-27 02:05:00,36.5,27.0,29.89,South,180,3.4,4.7,68,0.00,,,0.00,WUHU216HW,2013-10-27 08:05:00,
2013-10-27 02:15:00,36.4,27.2,29.88,SSE,158,2.5,5.4,69,0.00,,,0.00,WUHU216HW,2013-10-27 08:15:00,
2013-10-27 02:25:00,36.4,27.2,29.88,South,180,4.9,4.9,69,0.00,,,0.00,WUHU216HW,2013-10-27 08:25:00,
2013-10-27 02:35:00,36.4,27.2,29.87,ESE,113,0.9,3.8,69,0.00,,,0.00,WUHU216HW,2013-10-27 08:35:00,
2013-10-27 02:45:00,36.0,26.8,29.87,SSE,158,2.7,2.9,69,0.00,,,0.00,WUHU216HW,2013-10-27 08:45:00,
2013-10-27 02:55:00,35.8,27.0,29.86,South,180,3.4,5.1,70,0.00,,,0.00,WUHU216HW,2013-10-27 08:55:00,
2013-10-27 03:06:00,35.6,26.8,29.86,SSE,158,1.3,3.4,70,0.00,,,0.00,WUHU216HW,2013-10-27 09:06:00,
2013-10-27 03:16:00,35.5,27.0,29.85,SSE,158,2.5,4.0,71,0.00,,,0.00,WUHU216HW,2013-10-27 09:16:00,
2013-10-27 03:26:00,35.3,26.8,29.85,SSE,158,0.4,2.2,71,0.00,,,0.00,WUHU216HW,2013-10-27 09:26:00,
2013-10-27 03:36:00,34.9,26.5,29.84,NW,315,0.7,2.0,71,0.00,,,0.00,WUHU216HW,2013-10-27 09:36:00,
2013-10-27 03:46:00,34.0,25.2,29.84,ESE,113,1.3,1.3,70,0.00,,,0.00,WUHU216HW,2013-10-27 09:46:00,
2013-10-27 03:56:00,33.5,24.7,29.84,SSE,158,1.6,1.6,70,0.00,,,0.00,WUHU216HW,2013-10-27 09:56:00,
2013-10-27 04:06:00,33.3,24.8,29.84,SW,225,1.6,1.6,71,0.00,,,0.00,WUHU216HW,2013-10-27 10:06:00,
2013-10-27 04:16:00,33.1,25.0,29.83,SSW,203,0.4,1.6,72,0.00,,,0.00,WUHU216HW,2013-10-27 10:16:00,
2013-10-27 04:26:00,32.8,24.7,29.83,SW,225,0.4,1.1,72,0.00,,,0.00,WUHU216HW,2013-10-27 10:26:00,
2013-10-27 04:36:00,32.6,24.8,29.82,SSW,203,0.0,1.1,73,0.00,,,0.00,WUHU216HW,2013-10-27 10:36:00,
2013-10-27 04:46:00,32.4,24.7,29.82,SSW,203,0.0,1.6,73,0.00,,,0.00,WUHU216HW,2013-10-27 10:46:00,
2013-10-27 04:56:00,32.2,24.6,29.82,WSW,248,0.4,1.8,73,0.00,,,0.00,WUHU216HW,2013-10-27 10:56:00,
2013-10-27 05:06:00,32.0,24.7,29.81,ESE,113,1.1,2.5,74,0.00,,,0.00,WUHU216HW,2013-10-27 11:06:00,
2013-10-27 05:16:00,32.0,24.7,29.80,ESE,113,0.0,0.7,74,0.00,,,0.00,WUHU216HW,2013-10-27 11:16:00,
2013-10-27 05:26:00,32.0,25.0,29.80,NE,45,0.4,0.4,75,0.00,,,0.00,WUHU216HW,2013-10-27 11:26:00,
2013-10-27 05:36:00,31.9,25.2,29.80,SW,225,0.4,0.7,76,0.00,,,0.00,WUHU216HW,2013-10-27 11:36:00,
2013-10-27 05:46:00,31.7,25.0,29.79,East,90,0.7,2.0,76,0.00,,,0.00,WUHU216HW,2013-10-27 11:46:00,
2013-10-27 05:56:00,31.5,24.9,29.79,ENE,68,0.0,1.6,76,0.00,,,0.00,WUHU216HW,2013-10-27 11:56:00,
2013-10-27 06:06:00,31.3,24.9,29.78,ENE,68,0.0,0.9,77,0.00,,,0.00,WUHU216HW,2013-10-27 12:06:00,
2013-10-27 06:16:00,31.3,25.3,29.78,ESE,113,0.0,1.3,78,0.00,,,0.00,WUHU216HW,2013-10-27 12:16:00,
2013-10-27 06:26:00,31.3,25.3,29.77,ESE,113,0.0,2.5,78,0.00,,,0.00,WUHU216HW,2013-10-27 12:26:00,
2013-10-27 06:36:00,31.0,24.9,29.76,SSW,203,0.4,1.1,78,0.00,,,0.00,WUHU216HW,2013-10-27 12:36:00,
2013-10-27 06:46:00,30.8,24.8,29.76,SSW,203,0.4,0.4,78,0.00,,,0.00,WUHU216HW,2013-10-27 12:46:00,
2013-10-27 06:56:00,30.8,24.8,29.76,North,0,0.0,0.4,78,0.00,,,0.00,WUHU216HW,2013-10-27 12:56:00,
2013-10-27 07:06:00,30.6,24.6,29.75,ESE,113,0.7,1.1,78,0.00,,,0.00,WUHU216HW,2013-10-27 13:06:00,
2013-10-27 07:16:00,30.4,24.4,29.75,SW,225,0.0,0.7,78,0.00,,,0.00,WUHU216HW,2013-10-27 13:16:00,
2013-10-27 07:26:00,30.4,24.4,29.75,NE,45,0.4,0.4,78,0.00,,,0.00,WUHU216HW,2013-10-27 13:26:00,
2013-10-27 07:36:00,30.1,24.3,29.74,East,90,1.3,1.8,79,0.00,,,0.00,WUHU216HW,2013-10-27 13:36:00,
2013-10-27 07:46:00,29.9,24.1,29.74,SE,135,0.0,1.8,79,0.00,,,0.00,WUHU216HW,2013-10-27 13:46:00,
2013-10-27 07:56:00,29.9,24.1,29.74,West,270,1.1,1.1,79,0.00,,,0.00,WUHU216HW,2013-10-27 13:56:00,
2013-10-27 08:06:00,29.9,24.1,29.74,NE,45,0.0,0.4,79,0.00,,,0.00,WUHU216HW,2013-10-27 14:06:00,
2013-10-27 08:16:00,29.9,24.1,29.74,East,90,1.8,1.8,79,0.00,,,0.00,WUHU216HW,2013-10-27 14:16:00,
2013-10-27 08:26:00,29.7,23.9,29.73,SSE,158,0.7,2.5,79,0.00,,,0.00,WUHU216HW,2013-10-27 14:26:00,
2013-10-27 08:36:00,29.7,23.9,29.74,SW,225,0.9,1.8,79,0.00,,,0.00,WUHU216HW,2013-10-27 14:36:00,
2013-10-27 08:46:00,29.9,24.1,29.73,SSE,158,0.0,0.4,79,0.00,,,0.00,WUHU216HW,2013-10-27 14:46:00,
2013-10-27 08:56:00,29.9,24.1,29.73,North,0,0.4,1.1,79,0.00,,,0.00,WUHU216HW,2013-10-27 14:56:00,
2013-10-27 09:06:00,30.1,24.3,29.74,West,270,0.0,0.4,79,0.00,,,0.00,WUHU216HW,2013-10-27 15:06:00,
2013-10-27 09:16:00,30.4,24.7,29.74,NNE,23,0.4,1.1,79,0.00,,,0.00,WUHU216HW,2013-10-27 15:16:00,
2013-10-27 09:26:00,30.8,25.0,29.73,North,0,0.4,0.9,79,0.00,,,0.00,WUHU216HW,2013-10-27 15:26:00,
2013-10-27 09:36:00,30.8,25.0,29.73,NNE,23,0.7,1.1,79,0.00,,,0.00,WUHU216HW,2013-10-27 15:36:00,
2013-10-27 09:46:00,31.0,25.2,29.73,East,90,0.0,2.0,79,0.00,,,0.00,WUHU216HW,2013-10-27 15:46:00,
2013-10-27 09:56:00,31.1,25.4,29.73,North,0,0.4,1.6,79,0.00,,,0.00,WUHU216HW,2013-10-27 15:56:00,
2013-10-27 10:06:00,31.3,25.6,29.72,North,0,0.9,1.6,79,0.00,,,0.00,WUHU216HW,2013-10-27 16:06:00,
2013-10-27 10:16:00,31.5,25.5,29.72,North,0,0.0,1.1,78,0.00,,,0.00,WUHU216HW,2013-10-27 16:16:00,
2013-10-27 10:26:00,32.0,26.3,29.72,NNE,23,0.0,0.0,79,0.00,,,0.00,WUHU216HW,2013-10-27 16:26:00,
2013-10-27 10:37:00,32.8,27.0,29.71,NNW,338,0.0,2.0,79,0.00,,,0.00,WUHU216HW,2013-10-27 16:37:00,
2013-10-27 10:47:00,33.3,27.1,29.71,WNW,293,0.2,1.1,78,0.00,,,0.00,WUHU216HW,2013-10-27 16:47:00,
2013-10-27 10:57:00,34.0,27.8,29.71,NNE,23,1.1,1.3,78,0.00,,,0.00,WUHU216HW,2013-10-27 16:57:00,
2013-10-27 11:07:00,34.7,28.5,29.71,NNE,23,0.2,0.9,78,0.00,,,0.00,WUHU216HW,2013-10-27 17:07:00,
2013-10-27 11:17:00,35.6,28.8,29.70,NNE,23,1.1,2.0,76,0.00,,,0.00,WUHU216HW,2013-10-27 17:17:00,
2013-10-27 11:27:00,36.5,29.7,29.70,NNE,23,1.8,1.8,76,0.00,,,0.00,WUHU216HW,2013-10-27 17:27:00,
2013-10-27 11:37:00,37.3,29.7,29.70,ENE,68,1.6,2.0,74,0.00,,,0.00,WUHU216HW,2013-10-27 17:37:00,
2013-10-27 11:47:00,38.0,30.1,29.70,North,0,1.1,3.1,73,0.00,,,0.00,WUHU216HW,2013-10-27 17:47:00,
2013-10-27 11:57:00,38.9,30.6,29.69,North,0,3.1,4.0,72,0.00,,,0.00,WUHU216HW,2013-10-27 17:57:00,
2013-10-27 12:07:00,40.0,31.6,29.69,North,0,2.5,3.4,72,0.00,,,0.00,WUHU216HW,2013-10-27 18:07:00,
2013-10-27 12:17:00,41.0,31.7,29.69,North,0,6.3,6.3,69,0.00,,,0.00,WUHU216HW,2013-10-27 18:17:00,
2013-10-27 12:27:00,41.9,31.8,29.69,NNE,23,3.1,6.9,67,0.00,,,0.00,WUHU216HW,2013-10-27 18:27:00,
2013-10-27 12:37:00,42.8,32.7,29.69,NNE,23,4.3,4.9,67,0.00,,,0.00,WUHU216HW,2013-10-27 18:37:00,
2013-10-27 12:47:00,43.7,32.0,29.68,North,0,1.8,4.7,63,0.00,,,0.00,WUHU216HW,2013-10-27 18:47:00,
2013-10-27 12:57:00,43.9,31.8,29.67,NNE,23,3.4,6.0,62,0.00,,,0.00,WUHU216HW,2013-10-27 18:57:00,
2013-10-27 13:07:00,44.5,31.5,29.67,North,0,6.3,6.3,60,0.00,,,0.00,WUHU216HW,2013-10-27 19:07:00,
2013-10-27 13:17:00,44.6,31.2,29.66,NNW,338,4.7,5.4,59,0.00,,,0.00,WUHU216HW,2013-10-27 19:17:00,
2013-10-27 13:27:00,45.0,32.1,29.66,North,0,4.0,4.0,60,0.00,,,0.00,WUHU216HW,2013-10-27 19:27:00,
2013-10-27 13:37:00,45.4,31.4,29.65,North,0,3.4,6.9,58,0.00,,,0.00,WUHU216HW,2013-10-27 19:37:00,
2013-10-27 13:47:00,45.9,32.0,29.65,NNE,23,2.5,5.4,58,0.00,,,0.00,WUHU216HW,2013-10-27 19:47:00,
2013-10-27 13:57:00,46.4,32.0,29.65,NNE,23,4.5,6.3,57,0.00,,,0.00,WUHU216HW,2013-10-27 19:57:00,
2013-10-27 14:07:00,46.8,32.8,29.64,North,0,6.5,6.9,58,0.00,,,0.00,WUHU216HW,2013-10-27 20:07:00,
2013-10-27 14:17:00,47.2,33.6,29.64,NNE,23,6.0,6.0,59,0.00,,,0.00,WUHU216HW,2013-10-27 20:17:00,
2013-10-27 14:27:00,47.5,33.5,29.63,North,0,5.1,5.8,58,0.00,,,0.00,WUHU216HW,2013-10-27 20:27:00,
2013-10-27 14:37:00,48.1,33.5,29.63,North,0,6.3,7.6,57,0.00,,,0.00,WUHU216HW,2013-10-27 20:37:00,
2013-10-27 14:47:00,48.2,33.2,29.63,NE,45,3.4,8.1,56,0.00,,,0.00,WUHU216HW,2013-10-27 20:47:00,
2013-10-27 14:57:00,48.6,33.1,29.63,NNE,23,4.0,6.0,55,0.00,,,0.00,WUHU216HW,2013-10-27 20:57:00,
2013-10-27 15:07:00,48.8,33.8,29.63,ENE,68,4.7,6.3,56,0.00,,,0.00,WUHU216HW,2013-10-27 21:07:00,
2013-10-27 15:17:00,49.1,33.1,29.62,North,0,5.4,5.8,54,0.00,,,0.00,WUHU216HW,2013-10-27 21:17:00,
2013-10-27 15:27:00,49.3,33.8,29.62,North,0,4.5,6.5,55,0.00,,,0.00,WUHU216HW,2013-10-27 21:27:00,
2013-10-27 15:37:00,49.9,34.3,29.62,North,0,7.2,7.2,55,0.00,,,0.00,WUHU216HW,2013-10-27 21:37:00,
2013-10-27 15:47:00,50.0,34.5,29.62,North,0,2.7,5.6,55,0.00,,,0.00,WUHU216HW,2013-10-27 21:47:00,
2013-10-27 15:57:00,50.0,34.0,29.62,North,0,6.9,6.9,54,0.00,,,0.00,WUHU216HW,2013-10-27 21:57:00,
2013-10-27 16:07:00,49.7,34.1,29.63,NNW,338,3.1,7.6,55,0.00,,,0.00,WUHU216HW,2013-10-27 22:07:00,
2013-10-27 16:17:00,49.3,34.2,29.63,WNW,293,2.5,8.5,56,0.00,,,0.00,WUHU216HW,2013-10-27 22:17:00,
2013-10-27 16:27:00,49.0,33.9,29.63,NW,315,4.0,9.2,56,0.00,,,0.00,WUHU216HW,2013-10-27 22:27:00,
2013-10-27 16:37:00,48.8,34.2,29.63,NNE,23,6.3,7.6,57,0.00,,,0.00,WUHU216HW,2013-10-27 22:37:00,
2013-10-27 16:47:00,48.4,33.8,29.63,North,0,6.5,10.5,57,0.00,,,0.00,WUHU216HW,2013-10-27 22:47:00,
2013-10-27 16:57:00,47.9,34.3,29.64,North,0,6.5,10.1,59,0.00,,,0.00,WUHU216HW,2013-10-27 22:57:00,
2013-10-27 17:08:00,47.7,34.1,29.64,NNW,338,7.4,11.9,59,0.00,,,0.00,WUHU216HW,2013-10-27 23:08:00,
2013-10-27 17:18:00,47.3,34.2,29.65,ENE,68,4.0,12.1,60,0.00,,,0.00,WUHU216HW,2013-10-27 23:18:00,
2013-10-27 17:28:00,46.8,34.0,29.66,NNW,338,6.3,8.3,61,0.00,,,0.00,WUHU216HW,2013-10-27 23:28:00,
2013-10-27 17:38:00,46.3,33.9,29.66,ENE,68,8.1,9.6,62,0.00,,,0.00,WUHU216HW,2013-10-27 23:38:00,
2013-10-27 17:48:00,46.1,34.1,29.67,North,0,6.9,9.2,63,0.00,,,0.00,WUHU216HW,2013-10-27 23:48:00,
2013-10-27 17:58:00,45.7,33.9,29.67,North,0,9.6,13.4,63,0.00,,,0.00,WUHU216HW,2013-10-27 23:58:00,
2013-10-27 18:08:00,45.7,34.2,29.69,East,90,7.6,7.6,64,0.00,,,0.00,WUHU216HW,2013-10-28 00:08:00,
2013-10-27 18:18:00,45.7,33.9,29.70,North,0,3.8,8.7,63,0.00,,,0.00,WUHU216HW,2013-10-28 00:18:00,
2013-10-27 18:28:00,45.7,33.9,29.70,North,0,1.1,4.7,63,0.00,,,0.00,WUHU216HW,2013-10-28 00:28:00,
2013-10-27 18:38:00,46.1,31.6,29.71,NNW,338,6.9,8.9,57,0.00,,,0.00,WUHU216HW,2013-10-28 00:38:00,
2013-10-27 18:48:00,47.3,31.0,29.72,NNE,23,6.9,12.1,53,0.00,,,0.00,WUHU216HW,2013-10-28 00:48:00,
2013-10-27 18:58:00,47.9,30.6,29.73,East,90,7.4,16.3,51,0.00,,,0.00,WUHU216HW,2013-10-28 00:58:00,
2013-10-27 19:08:00,47.7,30.0,29.74,North,0,8.3,14.1,50,0.00,,,0.00,WUHU216HW,2013-10-28 01:08:00,
2013-10-27 19:18:00,47.3,29.6,29.75,NE,45,5.8,10.5,50,0.00,,,0.00,WUHU216HW,2013-10-28 01:18:00,
2013-10-27 19:28:00,47.2,30.3,29.76,ESE,113,15.7,15.7,52,0.00,,,0.00,WUHU216HW,2013-10-28 01:28:00,
2013-10-27 19:38:00,46.4,30.6,29.77,NE,45,6.7,16.1,54,0.00,,,0.00,WUHU216HW,2013-10-28 01:38:00,
2013-10-27 19:48:00,46.1,30.7,29.78,NE,45,3.8,9.6,55,0.00,,,0.00,WUHU216HW,2013-10-28 01:48:00,
2013-10-27 19:58:00,45.5,30.7,29.79,NE,45,12.8,15.4,56,0.00,,,0.00,WUHU216HW,2013-10-28 01:58:00,
2013-10-27 20:08:00,44.5,29.7,29.80,ENE,68,3.4,12.8,56,0.00,,,0.00,WUHU216HW,2013-10-28 02:08:00,
2013-10-27 20:18:00,44.3,30.0,29.81,NNW,338,0.2,6.0,57,0.00,,,0.00,WUHU216HW,2013-10-28 02:18:00,
2013-10-27 20:28:00,44.1,28.4,29.81,NNE,23,6.3,8.7,54,0.00,,,0.00,WUHU216HW,2013-10-28 02:28:00,
2013-10-27 20:38:00,43.9,26.6,29.82,NNE,23,6.3,14.1,50,0.00,,,0.00,WUHU216HW,2013-10-28 02:38:00,
2013-10-27 20:48:00,43.7,25.3,29.83,NNE,23,12.1,12.8,48,0.00,,,0.00,WUHU216HW,2013-10-28 02:48:00,
2013-10-27 20:58:00,43.7,25.8,29.84,NE,45,3.8,8.7,49,0.00,,,0.00,WUHU216HW,2013-10-28 02:58:00,
2013-10-27 21:08:00,43.6,26.2,29.83,ENE,68,4.7,6.3,50,0.00,,,0.00,WUHU216HW,2013-10-28 03:08:00,
2013-10-27 21:18:00,43.2,25.4,29.84,North,0,5.4,6.0,49,0.00,,,0.00,WUHU216HW,2013-10-28 03:18:00,
2013-10-27 21:28:00,42.8,24.5,29.84,East,90,3.4,8.7,48,0.00,,,0.00,WUHU216HW,2013-10-28 03:28:00,
2013-10-27 21:38:00,42.8,24.5,29.85,North,0,5.6,10.5,48,0.00,,,0.00,WUHU216HW,2013-10-28 03:38:00,
2013-10-27 21:48:00,42.5,23.6,29.86,NE,45,8.5,10.5,47,0.00,,,0.00,WUHU216HW,2013-10-28 03:48:00,
2013-10-27 21:58:00,42.1,22.7,29.87,ESE,113,13.4,16.8,46,0.00,,,0.00,WUHU216HW,2013-10-28 03:58:00,
2013-10-27 22:08:00,41.8,22.3,29.87,NNE,23,9.2,19.5,46,0.00,,,0.00,WUHU216HW,2013-10-28 04:08:00,
2013-10-27 22:18:00,41.4,21.5,29.88,NE,45,7.4,22.1,45,0.00,,,0.00,WUHU216HW,2013-10-28 04:18:00,
2013-10-27 22:28:00,41.0,21.7,29.89,ENE,68,5.4,11.6,46,0.00,,,0.00,WUHU216HW,2013-10-28 04:28:00,
2013-10-27 22:38:00,40.9,21.0,29.89,North,0,10.1,10.1,45,0.00,,,0.00,WUHU216HW,2013-10-28 04:38:00,
2013-10-27 22:48:00,40.7,21.9,29.89,ENE,68,1.8,13.6,47,0.00,,,0.00,WUHU216HW,2013-10-28 04:48:00,
2013-10-27 22:58:00,40.5,21.2,29.90,SSE,158,9.4,14.1,46,0.00,,,0.00,WUHU216HW,2013-10-28 04:58:00,
2013-10-27 23:08:00,40.3,21.1,29.90,NNE,23,10.1,11.4,46,0.00,,,0.00,WUHU216HW,2013-10-28 05:08:00,
2013-10-27 23:18:00,40.0,20.2,29.91,East,90,12.3,12.3,45,0.00,,,0.00,WUHU216HW,2013-10-28 05:18:00,
2013-10-27 23:28:00,39.8,19.5,29.91,ENE,68,11.4,15.0,44,0.00,,,0.00,WUHU216HW,2013-10-28 05:28:00,
2013-10-27 23:38:00,39.6,19.4,29.91,ENE,68,12.3,12.3,44,0.00,,,0.00,WUHU216HW,2013-10-28 05:38:00,
2013-10-27 23:48:00,39.2,19.0,29.92,ENE,68,5.1,15.0,44,0.00,,,0.00,WUHU216HW,2013-10-28 05:48:00,
2013-10-27 23:58:00,39.2,19.5,29.92,NNE,23,3.1,8.5,45,0.00,,,0.00,WUHU216HW,2013-10-28 05:58:00,